This is the latest recevied weather packets stored in our database for station/object CQ0XVC-11. If no packets are shown the sender has not sent any weather packets the latest 10 day(s).
| Time | Temp. | Humidity | Pressure | Rain* | Wind** | Luminosity | Snow |
|---|---|---|---|---|---|---|---|
| 1777548266 | 16.11° C | 55% | 1004.1 hPa | 0 mm | - | - | - |
| 1777548224 | 16.11° C | 55% | 1004.1 hPa | 0 mm | - | - | - |
| 1777547921 | 16.11° C | 54% | 1004.4 hPa | 0 mm | - | - | - |
| 1777547664 | 16.11° C | 56% | 1004.5 hPa | 0 mm | - | - | - |
| 1777547619 | 16.11° C | 56% | 1004.5 hPa | 0 mm | - | - | - |
| 1777547363 | 16.11° C | 57% | 1004.5 hPa | 0 mm | - | - | - |
| 1777547317 | 16.11° C | 57% | 1004.5 hPa | 0 mm | - | - | - |
| 1777547061 | 16.11° C | 60% | 1004.3 hPa | 0 mm | - | - | - |
| 1777547015 | 16.11° C | 60% | 1004.3 hPa | 0 mm | - | - | - |
| 1777546746 | 16.11° C | 59% | 1004.3 hPa | 0 mm | - | - | - |
| 1777546712 | 16.11° C | 59% | 1004.3 hPa | 0 mm | - | - | - |
| 1777546411 | 16.11° C | 60% | 1004.3 hPa | 0 mm | - | - | - |
| 1777546108 | 16.11° C | 61% | 1004.3 hPa | 0 mm | - | - | - |
| 1777545806 | 15.56° C | 62% | 1004.4 hPa | 0 mm | - | - | - |
| 1777545566 | 15.56° C | 61% | 1004.3 hPa | 0 mm | - | - | - |
| 1777545503 | 15.56° C | 61% | 1004.3 hPa | 0 mm | - | - | - |
| 1777545234 | 15.56° C | 63% | 1004.5 hPa | 0 mm | - | - | - |
| 1777545202 | 15.56° C | 63% | 1004.5 hPa | 0 mm | - | - | - |
| 1777544948 | 15.56° C | 69% | 1004.4 hPa | 0 mm | - | - | - |
| 1777544899 | 15.56° C | 69% | 1004.4 hPa | 0 mm | - | - | - |
| 1777544645 | 15.56° C | 64% | 1004.5 hPa | 0 mm | - | - | - |
| 1777544598 | 15.56° C | 64% | 1004.5 hPa | 0 mm | - | - | - |
| 1777544522 | 15.56° C | 65% | 1004.4 hPa | 0 mm | - | - | - |
| 1777544489 | 15.56° C | 68% | 1004.4 hPa | 0 mm | - | - | - |
| 1777544468 | 15.56° C | 65% | 1004.4 hPa | 0 mm | - | - | - |
* Rain since midnight (hover to see other rain measurements)
** Current wind speed in m/s (hover to see current wind gust speed)